Time,TemperatureF,DewpointF,PressureIn,WindDirection,WindDirectionDegrees,WindSpeedMPH,WindSpeedGustMPH,Humidity,HourlyPrecipIn,Conditions,Clouds,dailyrainin,SoftwareType,DateUTC
2013-02-13 00:01:00,43.3,40.0,30.03,WNW,294,9.0,21.0,88,0.00,,,0.00,weatherlink.com 1.10,2013-02-13 06:01:00,
2013-02-13 00:16:00,42.9,39.0,30.04,NW,311,12.0,19.0,87,0.00,,,0.00,weatherlink.com 1.10,2013-02-13 06:16:00,
2013-02-13 00:31:00,42.1,39.0,30.05,NNW,336,7.0,19.0,88,0.00,,,0.00,weatherlink.com 1.10,2013-02-13 06:31:00,
2013-02-13 00:46:00,41.6,38.0,30.05,NNW,339,7.0,16.0,88,0.00,,,0.00,weatherlink.com 1.10,2013-02-13 06:46:00,
2013-02-13 01:01:00,41.2,38.0,30.05,NNW,327,12.0,16.0,87,0.00,,,0.00,weatherlink.com 1.10,2013-02-13 07:01:00,
2013-02-13 01:17:00,41.0,37.0,30.05,NW,312,7.0,15.0,87,0.00,,,0.00,weatherlink.com 1.10,2013-02-13 07:17:00,
2013-02-13 01:32:00,41.0,37.0,30.05,NW,317,5.0,14.0,87,0.00,,,0.00,weatherlink.com 1.10,2013-02-13 07:32:00,
2013-02-13 01:47:00,40.8,37.0,30.06,NW,306,7.0,15.0,87,0.00,,,0.00,weatherlink.com 1.10,2013-02-13 07:47:00,
2013-02-13 02:02:00,40.7,37.0,30.06,NW,317,7.0,15.0,87,0.00,,,0.00,weatherlink.com 1.10,2013-02-13 08:02:00,
2013-02-13 02:17:00,40.8,37.0,30.07,NW,316,10.0,15.0,87,0.00,,,0.00,weatherlink.com 1.10,2013-02-13 08:17:00,
2013-02-13 02:32:00,40.8,37.0,30.07,North,5,5.0,18.0,86,0.00,,,0.00,weatherlink.com 1.10,2013-02-13 08:32:00,
2013-02-13 02:47:00,40.9,37.0,30.07,NW,318,9.0,16.0,86,0.00,,,0.00,weatherlink.com 1.10,2013-02-13 08:47:00,
2013-02-13 03:02:00,40.9,37.0,30.07,NW,320,8.0,16.0,85,0.00,,,0.00,weatherlink.com 1.10,2013-02-13 09:02:00,
2013-02-13 03:17:00,40.8,37.0,30.07,NW,326,10.0,16.0,85,0.00,,,0.00,weatherlink.com 1.10,2013-02-13 09:17:00,
2013-02-13 03:32:00,40.8,37.0,30.07,WNW,301,8.0,14.0,85,0.00,,,0.00,weatherlink.com 1.10,2013-02-13 09:32:00,
2013-02-13 03:47:00,40.6,37.0,30.08,NNW,342,4.0,17.0,85,0.00,,,0.00,weatherlink.com 1.10,2013-02-13 09:47:00,
2013-02-13 04:02:00,40.3,36.0,30.08,NW,306,15.0,23.0,85,0.00,,,0.00,weatherlink.com 1.10,2013-02-13 10:02:00,
2013-02-13 04:17:00,40.2,36.0,30.08,NE,38,7.0,16.0,86,0.00,,,0.00,weatherlink.com 1.10,2013-02-13 10:17:00,
2013-02-13 04:32:00,40.1,37.0,30.09,WNW,285,6.0,13.0,87,0.00,,,0.00,weatherlink.com 1.10,2013-02-13 10:32:00,
2013-02-13 04:47:00,39.9,36.0,30.09,WNW,288,8.0,16.0,87,0.00,,,0.00,weatherlink.com 1.10,2013-02-13 10:47:00,
2013-02-13 05:02:00,39.8,36.0,30.09,WNW,283,5.0,16.0,86,0.00,,,0.00,weatherlink.com 1.10,2013-02-13 11:02:00,
2013-02-13 05:17:00,39.8,36.0,30.10,NW,318,9.0,16.0,86,0.00,,,0.00,weatherlink.com 1.10,2013-02-13 11:17:00,
2013-02-13 05:20:00,39.7,35.9,30.10,NW,315,7.0,7.0,86,0.00,,,0.00,Wunderground v.1.15,2013-02-13 11:20:00,
2013-02-13 05:21:00,39.8,36.0,30.10,WNW,296,7.0,7.0,86,0.00,,,0.00,Wunderground v.1.15,2013-02-13 11:21:00,
2013-02-13 05:23:00,39.8,36.0,30.10,NW,325,7.0,11.0,86,0.00,,,0.00,Wunderground v.1.15,2013-02-13 11:23:00,
2013-02-13 05:26:00,39.8,36.0,30.10,NNW,329,7.0,12.0,86,0.00,,,0.00,Wunderground v.1.15,2013-02-13 11:26:00,
2013-02-13 05:28:00,39.8,36.0,30.10,NW,321,7.0,12.0,86,0.00,,,0.00,Wunderground v.1.15,2013-02-13 11:28:00,
2013-02-13 05:29:00,39.8,36.0,30.10,NNW,334,7.0,12.0,86,0.00,,,0.00,Wunderground v.1.15,2013-02-13 11:29:00,
2013-02-13 05:31:00,39.7,35.9,30.10,NW,322,6.0,7.0,86,0.00,,,0.00,Wunderground v.1.15,2013-02-13 11:31:00,
2013-02-13 05:34:00,39.7,35.9,30.10,WNW,302,6.0,9.0,86,0.00,,,0.00,Wunderground v.1.15,2013-02-13 11:34:00,
2013-02-13 05:36:00,39.8,36.0,30.10,NW,325,5.0,9.0,86,0.00,,,0.00,Wunderground v.1.15,2013-02-13 11:36:00,
2013-02-13 05:37:00,39.8,36.0,30.10,WNW,286,6.0,9.0,86,0.00,,,0.00,Wunderground v.1.15,2013-02-13 11:37:00,
2013-02-13 05:39:00,39.8,36.0,30.10,WNW,300,6.0,9.0,86,0.00,,,0.00,Wunderground v.1.15,2013-02-13 11:39:00,
2013-02-13 05:40:00,39.8,36.0,30.10,NE,54,6.0,6.0,86,0.00,,,0.00,Wunderground v.1.15,2013-02-13 11:40:00,
2013-02-13 05:41:00,39.8,36.0,30.10,WNW,282,7.0,7.0,86,0.00,,,0.00,Wunderground v.1.15,2013-02-13 11:41:00,
2013-02-13 05:42:00,39.8,36.0,30.10,WNW,300,6.0,8.0,86,0.00,,,0.00,Wunderground v.1.15,2013-02-13 11:42:00,
2013-02-13 05:45:00,39.8,36.0,30.10,NW,325,7.0,11.0,86,0.00,,,0.00,Wunderground v.1.15,2013-02-13 11:45:00,
2013-02-13 05:47:00,39.8,36.0,30.10,WNW,292,6.0,11.0,86,0.00,,,0.00,Wunderground v.1.15,2013-02-13 11:47:00,
2013-02-13 05:48:00,39.8,36.0,30.10,NNW,332,6.0,11.0,86,0.00,,,0.00,Wunderground v.1.15,2013-02-13 11:48:00,
2013-02-13 05:52:00,39.8,36.0,30.11,NW,317,6.0,10.0,86,0.00,,,0.00,Wunderground v.1.15,2013-02-13 11:52:00,
2013-02-13 05:53:00,39.8,36.0,30.11,NW,316,6.0,10.0,86,0.00,,,0.00,Wunderground v.1.15,2013-02-13 11:53:00,
2013-02-13 05:54:00,39.8,36.0,30.11,NNW,348,6.0,10.0,86,0.00,,,0.00,Wunderground v.1.15,2013-02-13 11:54:00,
2013-02-13 05:56:00,39.8,36.0,30.11,WNW,298,6.0,10.0,86,0.00,,,0.00,Wunderground v.1.15,2013-02-13 11:56:00,
2013-02-13 05:59:00,39.9,36.1,30.11,WNW,294,6.0,10.0,86,0.00,,,0.00,Wunderground v.1.15,2013-02-13 11:59:00,
2013-02-13 06:01:00,39.8,36.0,30.11,NW,309,6.0,10.0,86,0.00,,,0.00,Wunderground v.1.15,2013-02-13 12:01:00,
2013-02-13 06:03:00,39.8,35.7,30.11,WNW,284,6.0,10.0,85,0.00,,,0.00,Wunderground v.1.15,2013-02-13 12:03:00,
2013-02-13 06:07:00,39.8,35.7,30.11,WNW,292,7.0,13.0,85,0.00,,,0.00,Wunderground v.1.15,2013-02-13 12:07:00,
2013-02-13 06:08:00,39.8,35.7,30.11,NW,304,7.0,13.0,85,0.00,,,0.00,Wunderground v.1.15,2013-02-13 12:08:00,
2013-02-13 06:10:00,39.9,35.8,30.11,NW,310,7.0,7.0,85,0.00,,,0.00,Wunderground v.1.15,2013-02-13 12:10:00,
2013-02-13 06:13:00,39.9,35.8,30.11,NW,311,7.0,9.0,85,0.00,,,0.00,Wunderground v.1.15,2013-02-13 12:13:00,
2013-02-13 06:14:00,39.9,35.8,30.11,NW,304,7.0,9.0,85,0.00,,,0.00,Wunderground v.1.15,2013-02-13 12:14:00,
2013-02-13 06:15:00,39.9,35.8,30.11,NW,317,7.0,9.0,85,0.00,,,0.00,Wunderground v.1.15,2013-02-13 12:15:00,
2013-02-13 06:17:00,39.9,35.8,30.11,NNW,348,7.0,9.0,85,0.00,,,0.00,Wunderground v.1.15,2013-02-13 12:17:00,
2013-02-13 06:21:00,39.9,35.8,30.11,NW,309,7.0,7.0,85,0.00,,,0.00,Wunderground v.1.15,2013-02-13 12:21:00,
2013-02-13 06:22:00,40.0,35.9,30.11,NW,320,7.0,10.0,85,0.00,,,0.00,Wunderground v.1.15,2013-02-13 12:22:00,
2013-02-13 06:23:00,40.0,35.9,30.11,NNW,336,6.0,10.0,85,0.00,,,0.00,Wunderground v.1.15,2013-02-13 12:23:00,
2013-02-13 06:24:00,40.0,35.9,30.11,NNW,338,6.0,10.0,85,0.00,,,0.00,Wunderground v.1.15,2013-02-13 12:24:00,
2013-02-13 06:27:00,40.0,35.9,30.11,NW,306,7.0,10.0,85,0.00,,,0.00,Wunderground v.1.15,2013-02-13 12:27:00,
2013-02-13 06:28:00,40.0,35.9,30.11,NW,312,7.0,10.0,85,0.00,,,0.00,Wunderground v.1.15,2013-02-13 12:28:00,
2013-02-13 06:30:00,40.0,35.9,30.11,NNW,327,6.0,6.0,85,0.00,,,0.00,Wunderground v.1.15,2013-02-13 12:30:00,
2013-02-13 06:32:00,40.0,35.9,30.11,WNW,288,6.0,6.0,85,0.00,,,0.00,Wunderground v.1.15,2013-02-13 12:32:00,
2013-02-13 06:33:00,40.0,35.9,30.11,WNW,302,6.0,6.0,85,0.00,,,0.00,Wunderground v.1.15,2013-02-13 12:33:00,
2013-02-13 06:35:00,40.0,35.9,30.11,NNE,32,6.0,7.0,85,0.00,,,0.00,Wunderground v.1.15,2013-02-13 12:35:00,
2013-02-13 06:38:00,40.1,36.0,30.11,North,5,6.0,9.0,85,0.00,,,0.00,Wunderground v.1.15,2013-02-13 12:38:00,
2013-02-13 06:39:00,40.1,36.0,30.11,North,360,6.0,9.0,85,0.00,,,0.00,Wunderground v.1.15,2013-02-13 12:39:00,
2013-02-13 06:42:00,40.1,36.0,30.11,North,349,6.0,12.0,85,0.00,,,0.00,Wunderground v.1.15,2013-02-13 12:42:00,
2013-02-13 06:46:00,40.1,36.0,30.11,NW,304,6.0,12.0,85,0.00,,,0.00,Wunderground v.1.15,2013-02-13 12:46:00,
2013-02-13 06:47:00,40.1,36.0,30.11,NW,322,6.0,12.0,85,0.00,,,0.00,Wunderground v.1.15,2013-02-13 12:47:00,
2013-02-13 06:49:00,40.1,36.0,30.11,NNW,327,6.0,12.0,85,0.00,,,0.00,Wunderground v.1.15,2013-02-13 12:49:00,
2013-02-13 06:52:00,40.1,36.0,30.11,NW,304,6.0,11.0,85,0.00,,,0.00,Wunderground v.1.15,2013-02-13 12:52:00,
2013-02-13 06:53:00,40.1,36.0,30.11,NW,307,7.0,11.0,85,0.00,,,0.00,Wunderground v.1.15,2013-02-13 12:53:00,
2013-02-13 06:54:00,40.1,36.0,30.11,NW,324,7.0,11.0,85,0.00,,,0.00,Wunderground v.1.15,2013-02-13 12:54:00,
2013-02-13 06:55:00,40.2,36.1,30.11,WNW,298,7.0,11.0,85,0.00,,,0.00,Wunderground v.1.15,2013-02-13 12:55:00,
2013-02-13 06:59:00,40.2,35.8,30.11,NNW,344,7.0,15.0,84,0.00,,,0.00,Wunderground v.1.15,2013-02-13 12:59:00,
2013-02-13 07:00:00,40.2,35.8,30.11,North,349,6.0,6.0,84,0.00,,,0.00,Wunderground v.1.15,2013-02-13 13:00:00,
2013-02-13 07:01:00,40.2,35.8,30.11,NNW,329,6.0,6.0,84,0.00,,,0.00,Wunderground v.1.15,2013-02-13 13:01:00,
2013-02-13 07:02:00,40.2,35.8,30.11,North,350,6.0,6.0,84,0.00,,,0.00,Wunderground v.1.15,2013-02-13 13:02:00,
2013-02-13 07:05:00,40.2,35.8,30.11,NW,318,6.0,7.0,84,0.00,,,0.00,Wunderground v.1.15,2013-02-13 13:05:00,
2013-02-13 07:08:00,40.2,35.8,30.11,NW,322,6.0,13.0,84,0.00,,,0.00,Wunderground v.1.15,2013-02-13 13:08:00,
2013-02-13 07:11:00,40.1,35.7,30.11,NNE,16,7.0,13.0,84,0.00,,,0.00,Wunderground v.1.15,2013-02-13 13:11:00,
2013-02-13 07:12:00,40.1,35.7,30.11,NNW,329,7.0,13.0,84,0.00,,,0.00,Wunderground v.1.15,2013-02-13 13:12:00,
2013-02-13 07:14:00,40.1,35.7,30.11,NNE,14,7.0,13.0,84,0.00,,,0.00,Wunderground v.1.15,2013-02-13 13:14:00,
2013-02-13 07:17:00,40.1,35.7,30.11,North,5,7.0,13.0,84,0.00,,,0.00,Wunderground v.1.15,2013-02-13 13:17:00,
2013-02-13 07:22:00,40.2,35.8,30.11,NNW,335,6.0,10.0,84,0.00,,,0.00,Wunderground v.1.15,2013-02-13 13:22:00,
2013-02-13 07:23:00,40.1,35.7,30.11,NW,310,6.0,10.0,84,0.00,,,0.00,Wunderground v.1.15,2013-02-13 13:23:00,
2013-02-13 07:24:00,40.1,35.7,30.11,WNW,294,6.0,10.0,84,0.00,,,0.00,Wunderground v.1.15,2013-02-13 13:24:00,
2013-02-13 07:28:00,40.2,35.8,30.11,North,349,6.0,10.0,84,0.00,,,0.00,Wunderground v.1.15,2013-02-13 13:28:00,
2013-02-13 07:29:00,40.2,35.8,30.11,WNW,298,6.0,10.0,84,0.00,,,0.00,Wunderground v.1.15,2013-02-13 13:29:00,
2013-02-13 07:30:00,40.2,36.1,30.12,NNW,342,6.0,6.0,85,0.00,,,0.00,Wunderground v.1.15,2013-02-13 13:30:00,
2013-02-13 07:32:00,40.2,36.1,30.12,NW,304,5.0,7.0,85,0.00,,,0.00,Wunderground v.1.15,2013-02-13 13:32:00,
2013-02-13 07:36:00,40.2,36.1,30.12,NNW,330,5.0,7.0,85,0.00,,,0.00,Wunderground v.1.15,2013-02-13 13:36:00,
2013-02-13 07:38:00,40.2,36.1,30.13,NW,309,4.0,7.0,85,0.00,,,0.00,Wunderground v.1.15,2013-02-13 13:38:00,
2013-02-13 07:42:00,40.2,35.8,30.13,NNW,330,4.0,7.0,84,0.00,,,0.00,Wunderground v.1.15,2013-02-13 13:42:00,
2013-02-13 07:43:00,40.2,35.8,30.13,NW,313,5.0,13.0,84,0.00,,,0.00,Wunderground v.1.15,2013-02-13 13:43:00,
2013-02-13 07:45:00,40.2,35.8,30.13,NNW,338,6.0,13.0,84,0.00,,,0.00,Wunderground v.1.15,2013-02-13 13:45:00,
2013-02-13 07:48:00,40.3,35.8,30.13,NNW,327,7.0,13.0,84,0.00,,,0.00,Wunderground v.1.15,2013-02-13 13:48:00,
2013-02-13 07:49:00,40.2,35.8,30.13,NNE,17,7.0,13.0,84,0.00,,,0.00,Wunderground v.1.15,2013-02-13 13:49:00,
2013-02-13 07:53:00,40.3,35.8,30.13,NW,321,7.0,9.0,84,0.00,,,0.00,Wunderground v.1.15,2013-02-13 13:53:00,
2013-02-13 07:55:00,40.3,35.8,30.13,WNW,290,7.0,9.0,84,0.00,,,0.00,Wunderground v.1.15,2013-02-13 13:55:00,
2013-02-13 07:56:00,40.3,35.8,30.13,NNE,13,7.0,9.0,84,0.00,,,0.00,Wunderground v.1.15,2013-02-13 13:56:00,
2013-02-13 07:57:00,40.3,35.8,30.13,North,360,7.0,9.0,84,0.00,,,0.00,Wunderground v.1.15,2013-02-13 13:57:00,
2013-02-13 08:00:00,40.4,35.9,30.14,NNW,331,6.0,6.0,84,0.00,,,0.00,Wunderground v.1.15,2013-02-13 14:00:00,
2013-02-13 08:01:00,40.4,35.9,30.13,NNW,344,6.0,6.0,84,0.00,,,0.00,Wunderground v.1.15,2013-02-13 14:01:00,
2013-02-13 08:02:00,40.4,36.2,30.13,NW,325,6.0,7.0,85,0.00,,,0.00,Wunderground v.1.15,2013-02-13 14:02:00,
2013-02-13 08:03:00,40.4,36.2,30.14,WNW,296,6.0,7.0,85,0.00,,,0.00,Wunderground v.1.15,2013-02-13 14:03:00,
2013-02-13 08:08:00,40.4,35.9,30.14,WNW,300,5.0,7.0,84,0.00,,,0.00,Wunderground v.1.15,2013-02-13 14:08:00,
2013-02-13 08:09:00,40.4,36.2,30.14,NNW,333,4.0,7.0,85,0.00,,,0.00,Wunderground v.1.15,2013-02-13 14:09:00,
2013-02-13 08:10:00,40.5,36.3,30.14,WNW,288,4.0,8.0,85,0.00,,,0.00,Wunderground v.1.15,2013-02-13 14:10:00,
2013-02-13 08:14:00,40.5,36.3,30.14,NW,315,5.0,8.0,85,0.00,,,0.00,Wunderground v.1.15,2013-02-13 14:14:00,
2013-02-13 08:15:00,40.5,36.3,30.14,WNW,302,5.0,8.0,85,0.00,,,0.00,Wunderground v.1.15,2013-02-13 14:15:00,
2013-02-13 08:17:00,40.5,36.3,30.14,NW,323,5.0,8.0,85,0.00,,,0.00,Wunderground v.1.15,2013-02-13 14:17:00,
2013-02-13 08:20:00,40.5,36.0,30.14,NW,320,5.0,5.0,84,0.00,,,0.00,Wunderground v.1.15,2013-02-13 14:20:00,
2013-02-13 08:22:00,40.5,36.0,30.14,NNW,335,5.0,7.0,84,0.00,,,0.00,Wunderground v.1.15,2013-02-13 14:22:00,
2013-02-13 08:24:00,40.4,35.9,30.14,WNW,292,5.0,7.0,84,0.00,,,0.00,Wunderground v.1.15,2013-02-13 14:24:00,
2013-02-13 08:25:00,40.5,36.0,30.14,WNW,282,5.0,7.0,84,0.00,,,0.00,Wunderground v.1.15,2013-02-13 14:25:00,
2013-02-13 08:28:00,40.5,36.3,30.14,WNW,296,5.0,9.0,85,0.00,,,0.00,Wunderground v.1.15,2013-02-13 14:28:00,
2013-02-13 08:30:00,40.4,35.9,30.14,WNW,301,6.0,7.0,84,0.00,,,0.00,Wunderground v.1.15,2013-02-13 14:30:00,
2013-02-13 08:31:00,40.4,35.9,30.15,NW,318,6.0,7.0,84,0.00,,,0.00,Wunderground v.1.15,2013-02-13 14:31:00,
2013-02-13 08:35:00,40.4,35.9,30.15,NW,306,6.0,7.0,84,0.00,,,0.00,Wunderground v.1.15,2013-02-13 14:35:00,
2013-02-13 08:37:00,40.4,35.9,30.14,WNW,288,6.0,7.0,84,0.00,,,0.00,Wunderground v.1.15,2013-02-13 14:37:00,
2013-02-13 08:40:00,40.5,36.0,30.15,NW,315,5.0,5.0,84,0.00,,,0.00,Wunderground v.1.15,2013-02-13 14:40:00,
2013-02-13 08:42:00,40.5,36.0,30.15,NW,311,5.0,9.0,84,0.00,,,0.00,Wunderground v.1.15,2013-02-13 14:42:00,
2013-02-13 08:46:00,40.5,36.0,30.15,NNW,328,6.0,9.0,84,0.00,,,0.00,Wunderground v.1.15,2013-02-13 14:46:00,
2013-02-13 08:48:00,40.5,36.0,30.15,WNW,286,6.0,9.0,84,0.00,,,0.00,Wunderground v.1.15,2013-02-13 14:48:00,
2013-02-13 08:49:00,40.5,36.0,30.15,WNW,294,6.0,9.0,84,0.00,,,0.00,Wunderground v.1.15,2013-02-13 14:49:00,
2013-02-13 08:50:00,40.5,36.0,30.15,NW,326,6.0,6.0,84,0.00,,,0.00,Wunderground v.1.15,2013-02-13 14:50:00,
2013-02-13 08:55:00,40.5,35.7,30.15,NW,318,6.0,7.0,83,0.00,,,0.00,Wunderground v.1.15,2013-02-13 14:55:00,
2013-02-13 08:56:00,40.5,36.0,30.16,NW,323,5.0,13.0,84,0.00,,,0.00,Wunderground v.1.15,2013-02-13 14:56:00,
2013-02-13 09:01:00,40.5,36.0,30.16,NNW,336,5.0,8.0,84,0.00,,,0.00,Wunderground v.1.15,2013-02-13 15:01:00,
2013-02-13 09:02:00,40.5,36.0,30.16,NW,325,5.0,8.0,84,0.00,,,0.00,Wunderground v.1.15,2013-02-13 15:02:00,
2013-02-13 09:03:00,40.4,35.9,30.16,NW,305,5.0,8.0,84,0.00,,,0.00,Wunderground v.1.15,2013-02-13 15:03:00,
2013-02-13 09:05:00,40.4,35.9,30.16,NW,319,4.0,8.0,84,0.00,,,0.00,Wunderground v.1.15,2013-02-13 15:05:00,
2013-02-13 09:06:00,40.4,35.9,30.16,NNW,340,4.0,8.0,84,0.00,,,0.00,Wunderground v.1.15,2013-02-13 15:06:00,
2013-02-13 09:08:00,40.5,36.3,30.16,NNE,15,4.0,8.0,85,0.00,,,0.00,Wunderground v.1.15,2013-02-13 15:08:00,
2013-02-13 09:10:00,40.5,36.0,30.16,NNW,335,4.0,5.0,84,0.00,,,0.00,Wunderground v.1.15,2013-02-13 15:10:00,
2013-02-13 09:13:00,40.5,36.3,30.16,NNW,342,3.0,5.0,85,0.00,,,0.00,Wunderground v.1.15,2013-02-13 15:13:00,
2013-02-13 09:14:00,40.5,36.3,30.16,NNW,338,3.0,5.0,85,0.00,,,0.00,Wunderground v.1.15,2013-02-13 15:14:00,
2013-02-13 09:18:00,40.6,36.4,30.16,NW,324,3.0,5.0,85,0.00,,,0.00,Wunderground v.1.15,2013-02-13 15:18:00,
2013-02-13 09:20:00,40.6,36.1,30.16,NW,305,3.0,4.0,84,0.00,,,0.00,Wunderground v.1.15,2013-02-13 15:20:00,
2013-02-13 09:21:00,40.6,36.1,30.16,North,9,2.0,4.0,84,0.00,,,0.00,Wunderground v.1.15,2013-02-13 15:21:00,
2013-02-13 09:22:00,40.7,36.2,30.16,NW,307,2.0,4.0,84,0.00,,,0.00,Wunderground v.1.15,2013-02-13 15:22:00,
2013-02-13 09:26:00,40.7,36.2,30.16,NW,311,3.0,6.0,84,0.00,,,0.00,Wunderground v.1.15,2013-02-13 15:26:00,
2013-02-13 09:27:00,40.7,36.2,30.16,WNW,291,3.0,6.0,84,0.00,,,0.00,Wunderground v.1.15,2013-02-13 15:27:00,
2013-02-13 09:29:00,40.7,36.2,30.16,NW,311,4.0,6.0,84,0.00,,,0.00,Wunderground v.1.15,2013-02-13 15:29:00,
2013-02-13 09:32:00,40.8,36.3,30.16,NW,311,5.0,8.0,84,0.00,,,0.00,Wunderground v.1.15,2013-02-13 15:32:00,
2013-02-13 09:34:00,40.8,36.3,30.17,NNW,328,6.0,8.0,84,0.00,,,0.00,Wunderground v.1.15,2013-02-13 15:34:00,
2013-02-13 09:35:00,40.8,36.3,30.17,WNW,298,6.0,8.0,84,0.00,,,0.00,Wunderground v.1.15,2013-02-13 15:35:00,
2013-02-13 09:39:00,40.8,36.3,30.17,NNW,342,5.0,8.0,84,0.00,,,0.00,Wunderground v.1.15,2013-02-13 15:39:00,
2013-02-13 09:40:00,40.9,36.4,30.17,NNW,338,5.0,5.0,84,0.00,,,0.00,Wunderground v.1.15,2013-02-13 15:40:00,
2013-02-13 09:41:00,40.9,36.4,30.17,NW,308,5.0,5.0,84,0.00,,,0.00,Wunderground v.1.15,2013-02-13 15:41:00,
2013-02-13 09:43:00,40.9,36.4,30.17,NNW,341,5.0,7.0,84,0.00,,,0.00,Wunderground v.1.15,2013-02-13 15:43:00,
2013-02-13 09:48:00,40.9,36.4,30.17,NNW,327,3.0,7.0,84,0.00,,,0.00,Wunderground v.1.15,2013-02-13 15:48:00,
2013-02-13 09:49:00,40.9,36.4,30.17,North,360,3.0,7.0,84,0.00,,,0.00,Wunderground v.1.15,2013-02-13 15:49:00,
2013-02-13 09:54:00,40.9,36.4,30.17,NNW,340,2.0,4.0,84,0.00,,,0.00,Wunderground v.1.15,2013-02-13 15:54:00,
2013-02-13 09:55:00,40.9,36.4,30.17,NW,306,2.0,4.0,84,0.00,,,0.00,Wunderground v.1.15,2013-02-13 15:55:00,
2013-02-13 09:56:00,41.0,36.5,30.17,NW,309,2.0,9.0,84,0.00,,,0.00,Wunderground v.1.15,2013-02-13 15:56:00,
2013-02-13 10:00:00,41.0,36.5,30.18,West,275,2.0,4.0,84,0.00,,,0.00,Wunderground v.1.15,2013-02-13 16:00:00,
2013-02-13 10:02:00,41.1,36.6,30.18,WNW,301,2.0,4.0,84,0.00,,,0.00,Wunderground v.1.15,2013-02-13 16:02:00,
2013-02-13 10:03:00,41.1,36.6,30.18,NW,304,3.0,4.0,84,0.00,,,0.00,Wunderground v.1.15,2013-02-13 16:03:00,
2013-02-13 10:06:00,41.1,36.3,30.18,WNW,298,3.0,8.0,83,0.00,,,0.00,Wunderground v.1.15,2013-02-13 16:06:00,
2013-02-13 10:08:00,41.1,36.3,30.18,NW,323,4.0,8.0,83,0.00,,,0.00,Wunderground v.1.15,2013-02-13 16:08:00,
2013-02-13 10:12:00,41.1,36.3,30.18,North,355,4.0,5.0,83,0.00,,,0.00,Wunderground v.1.15,2013-02-13 16:12:00,
2013-02-13 10:15:00,41.2,36.4,30.18,NNW,330,4.0,5.0,83,0.00,,,0.00,Wunderground v.1.15,2013-02-13 16:15:00,
2013-02-13 10:17:00,41.2,36.4,30.18,WNW,300,3.0,5.0,83,0.00,,,0.00,Wunderground v.1.15,2013-02-13 16:17:00,
2013-02-13 10:19:00,41.3,36.5,30.18,NNW,345,3.0,5.0,83,0.00,,,0.00,Wunderground v.1.15,2013-02-13 16:19:00,
2013-02-13 10:23:00,41.4,36.6,30.18,NW,316,4.0,4.0,83,0.00,,,0.00,Wunderground v.1.15,2013-02-13 16:23:00,
2013-02-13 10:24:00,41.4,36.6,30.18,WNW,292,4.0,6.0,83,0.00,,,0.00,Wunderground v.1.15,2013-02-13 16:24:00,
2013-02-13 10:25:00,41.5,36.7,30.18,NW,318,4.0,6.0,83,0.00,,,0.00,Wunderground v.1.15,2013-02-13 16:25:00,
2013-02-13 10:29:00,41.6,36.8,30.18,NW,311,4.0,6.0,83,0.00,,,0.00,Wunderground v.1.15,2013-02-13 16:29:00,
2013-02-13 10:32:00,41.8,37.0,30.18,WNW,287,4.0,6.0,83,0.00,,,0.00,Wunderground v.1.15,2013-02-13 16:32:00,
2013-02-13 10:34:00,41.9,36.8,30.18,WNW,297,4.0,6.0,82,0.00,,,0.00,Wunderground v.1.15,2013-02-13 16:34:00,
2013-02-13 10:35:00,41.9,37.1,30.18,NW,321,4.0,6.0,83,0.00,,,0.00,Wunderground v.1.15,2013-02-13 16:35:00,
2013-02-13 10:38:00,42.1,37.0,30.18,North,355,4.0,6.0,82,0.00,,,0.00,Wunderground v.1.15,2013-02-13 16:38:00,
2013-02-13 10:42:00,42.3,36.9,30.18,NW,304,3.0,4.0,81,0.00,,,0.00,Wunderground v.1.15,2013-02-13 16:42:00,
2013-02-13 10:43:00,42.3,37.2,30.18,NNE,28,3.0,4.0,82,0.00,,,0.00,Wunderground v.1.15,2013-02-13 16:43:00,
2013-02-13 10:44:00,42.3,37.2,30.18,North,360,3.0,6.0,82,0.00,,,0.00,Wunderground v.1.15,2013-02-13 16:44:00,
2013-02-13 10:46:00,42.4,37.0,30.18,NNW,341,4.0,6.0,81,0.00,,,0.00,Wunderground v.1.15,2013-02-13 16:46:00,
2013-02-13 10:48:00,42.4,37.0,30.18,NE,47,4.0,6.0,81,0.00,,,0.00,Wunderground v.1.15,2013-02-13 16:48:00,
2013-02-13 10:52:00,42.5,37.4,30.18,NW,309,4.0,4.0,82,0.00,,,0.00,Wunderground v.1.15,2013-02-13 16:52:00,
2013-02-13 10:53:00,42.5,37.1,30.18,North,9,3.0,4.0,81,0.00,,,0.00,Wunderground v.1.15,2013-02-13 16:53:00,
2013-02-13 10:54:00,42.6,37.2,30.18,NW,312,3.0,5.0,81,0.00,,,0.00,Wunderground v.1.15,2013-02-13 16:54:00,
2013-02-13 10:58:00,42.7,37.3,30.18,NW,304,3.0,5.0,81,0.00,,,0.00,Wunderground v.1.15,2013-02-13 16:58:00,
2013-02-13 10:59:00,42.8,37.4,30.18,NNW,336,3.0,5.0,81,0.00,,,0.00,Wunderground v.1.15,2013-02-13 16:59:00,
2013-02-13 11:01:00,42.9,37.5,30.18,North,350,3.0,3.0,81,0.00,,,0.00,Wunderground v.1.15,2013-02-13 17:01:00,
2013-02-13 11:04:00,43.0,37.3,30.18,North,9,2.0,3.0,80,0.00,,,0.00,Wunderground v.1.15,2013-02-13 17:04:00,
2013-02-13 11:06:00,43.1,37.7,30.18,SW,232,2.0,3.0,81,0.00,,,0.00,Wunderground v.1.15,2013-02-13 17:06:00,
2013-02-13 11:07:00,43.3,38.2,30.18,SW,232,2.0,3.0,82,0.00,,,0.00,Wunderground v.1.15,2013-02-13 17:07:00,
2013-02-13 11:11:00,43.6,37.8,30.18,NW,319,2.0,3.0,80,0.00,,,0.00,Wunderground v.1.15,2013-02-13 17:11:00,
2013-02-13 11:12:00,43.7,37.9,30.18,NW,313,2.0,3.0,80,0.00,,,0.00,Wunderground v.1.15,2013-02-13 17:12:00,
2013-02-13 11:14:00,43.7,37.6,30.18,NW,313,1.0,3.0,79,0.00,,,0.00,Wunderground v.1.15,2013-02-13 17:14:00,
2013-02-13 11:17:00,44.1,38.0,30.18,West,281,2.0,5.0,79,0.00,,,0.00,Wunderground v.1.15,2013-02-13 17:17:00,
2013-02-13 11:19:00,44.2,38.1,30.18,NNW,335,2.0,5.0,79,0.00,,,0.00,Wunderground v.1.15,2013-02-13 17:19:00,
2013-02-13 11:21:00,44.2,37.8,30.18,WNW,290,2.0,6.0,78,0.00,,,0.00,Wunderground v.1.15,2013-02-13 17:21:00,
2013-02-13 11:23:00,44.3,37.5,30.18,West,276,2.0,6.0,77,0.00,,,0.00,Wunderground v.1.15,2013-02-13 17:23:00,
2013-02-13 11:26:00,44.3,37.9,30.18,WNW,290,3.0,6.0,78,0.00,,,0.00,Wunderground v.1.15,2013-02-13 17:26:00,
2013-02-13 11:27:00,44.3,37.5,30.17,WNW,290,3.0,6.0,77,0.00,,,0.00,Wunderground v.1.15,2013-02-13 17:27:00,
2013-02-13 11:30:00,44.3,37.5,30.17,NNE,12,3.0,3.0,77,0.00,,,0.00,Wunderground v.1.15,2013-02-13 17:30:00,
2013-02-13 11:33:00,44.1,37.7,30.17,North,5,2.0,3.0,78,0.00,,,0.00,Wunderground v.1.15,2013-02-13 17:33:00,
2013-02-13 11:37:00,44.5,37.7,30.17,WNW,290,2.0,4.0,77,0.00,,,0.00,Wunderground v.1.15,2013-02-13 17:37:00,
2013-02-13 11:38:00,44.6,37.8,30.17,WNW,297,2.0,4.0,77,0.00,,,0.00,Wunderground v.1.15,2013-02-13 17:38:00,
2013-02-13 11:40:00,44.7,37.9,30.17,WSW,237,2.0,2.0,77,0.00,,,0.00,Wunderground v.1.15,2013-02-13 17:40:00,
2013-02-13 11:44:00,44.6,37.2,30.17,North,355,3.0,4.0,75,0.00,,,0.00,Wunderground v.1.15,2013-02-13 17:44:00,
2013-02-13 11:45:00,44.6,37.8,30.17,NNW,338,3.0,4.0,77,0.00,,,0.00,Wunderground v.1.15,2013-02-13 17:45:00,
2013-02-13 11:46:00,44.5,37.4,30.17,NNW,338,3.0,4.0,76,0.00,,,0.00,Wunderground v.1.15,2013-02-13 17:46:00,
2013-02-13 11:51:00,44.3,37.2,30.17,WNW,303,3.0,3.0,76,0.00,,,0.00,Wunderground v.1.15,2013-02-13 17:51:00,
2013-02-13 11:52:00,44.3,37.5,30.17,WNW,303,2.0,3.0,77,0.00,,,0.00,Wunderground v.1.15,2013-02-13 17:52:00,
2013-02-13 11:53:00,44.4,37.6,30.17,North,5,2.0,3.0,77,0.00,,,0.00,Wunderground v.1.15,2013-02-13 17:53:00,
2013-02-13 11:57:00,45.2,38.4,30.17,South,183,2.0,6.0,77,0.00,,,0.00,Wunderground v.1.15,2013-02-13 17:57:00,
2013-02-13 11:59:00,46.0,38.5,30.16,SW,223,1.0,6.0,75,0.00,,,0.00,Wunderground v.1.15,2013-02-13 17:59:00,
2013-02-13 12:00:00,46.2,38.4,30.16,WSW,247,1.0,1.0,74,0.00,,,0.00,Wunderground v.1.15,2013-02-13 18:00:00,
2013-02-13 12:03:00,46.4,38.9,30.16,SW,229,2.0,2.0,75,0.00,,,0.00,Wunderground v.1.15,2013-02-13 18:03:00,
2013-02-13 12:06:00,46.7,38.1,30.16,West,265,2.0,2.0,72,0.00,,,0.00,Wunderground v.1.15,2013-02-13 18:06:00,
2013-02-13 12:08:00,46.7,38.5,30.16,ESE,108,1.0,2.0,73,0.00,,,0.00,Wunderground v.1.15,2013-02-13 18:08:00,
2013-02-13 12:09:00,46.5,38.0,30.16,ESE,108,1.0,2.0,72,0.00,,,0.00,Wunderground v.1.15,2013-02-13 18:09:00,
2013-02-13 12:13:00,46.3,38.1,30.15,NNW,333,1.0,4.0,73,0.00,,,0.00,Wunderground v.1.15,2013-02-13 18:13:00,
2013-02-13 12:15:00,46.4,38.2,30.15,NW,311,1.0,4.0,73,0.00,,,0.00,Wunderground v.1.15,2013-02-13 18:15:00,
2013-02-13 12:20:00,47.3,39.0,30.15,West,268,2.0,5.0,72,0.00,,,0.00,weatherlink.com 1.10,2013-02-13 18:20:00,
2013-02-13 12:21:00,47.3,38.4,30.15,WSW,254,2.0,2.0,71,0.00,,,0.00,Wunderground v.1.15,2013-02-13 18:21:00,
2013-02-13 12:23:00,47.2,38.6,30.15,WNW,288,2.0,2.0,72,0.00,,,0.00,Wunderground v.1.15,2013-02-13 18:23:00,
2013-02-13 12:24:00,47.2,38.6,30.15,WNW,288,2.0,2.0,72,0.00,,,0.00,Wunderground v.1.15,2013-02-13 18:24:00,
2013-02-13 12:26:00,47.1,38.2,30.15,WNW,288,1.0,2.0,71,0.00,,,0.00,Wunderground v.1.15,2013-02-13 18:26:00,
2013-02-13 12:29:00,47.6,38.7,30.15,NW,311,1.0,3.0,71,0.00,,,0.00,Wunderground v.1.15,2013-02-13 18:29:00,
2013-02-13 12:30:00,47.6,38.7,30.15,NW,311,1.0,1.0,71,0.00,,,0.00,Wunderground v.1.15,2013-02-13 18:30:00,
2013-02-13 12:33:00,47.9,38.9,30.15,NW,318,1.0,1.0,71,0.00,,,0.00,Wunderground v.1.15,2013-02-13 18:33:00,
2013-02-13 12:34:00,48.0,39.0,30.14,SW,232,1.0,4.0,71,0.00,,,0.00,Wunderground v.1.15,2013-02-13 18:34:00,
2013-02-13 12:35:00,48.2,39.2,30.14,West,265,1.0,4.0,71,0.00,,,0.00,Wunderground v.1.15,2013-02-13 18:35:00,
2013-02-13 12:38:00,48.4,38.7,30.14,SW,216,2.0,4.0,69,0.00,,,0.00,Wunderground v.1.15,2013-02-13 18:38:00,
2013-02-13 12:39:00,48.2,38.5,30.14,SW,216,2.0,4.0,69,0.00,,,0.00,Wunderground v.1.15,2013-02-13 18:39:00,
2013-02-13 12:41:00,48.3,39.3,30.14,West,271,2.0,4.0,71,0.00,,,0.00,Wunderground v.1.15,2013-02-13 18:41:00,
2013-02-13 12:45:00,48.8,39.1,30.14,NW,311,2.0,4.0,69,0.00,,,0.00,Wunderground v.1.15,2013-02-13 18:45:00,
2013-02-13 12:46:00,48.6,38.9,30.14,NW,323,2.0,4.0,69,0.00,,,0.00,Wunderground v.1.15,2013-02-13 18:46:00,
2013-02-13 12:47:00,48.6,38.9,30.14,NW,309,2.0,4.0,69,0.00,,,0.00,Wunderground v.1.15,2013-02-13 18:47:00,
2013-02-13 12:49:00,48.8,39.4,30.14,WNW,295,2.0,4.0,70,0.00,,,0.00,Wunderground v.1.15,2013-02-13 18:49:00,
2013-02-13 12:53:00,48.7,39.0,30.14,NW,306,2.0,4.0,69,0.00,,,0.00,Wunderground v.1.15,2013-02-13 18:53:00,
2013-02-13 12:54:00,48.7,39.0,30.13,WNW,283,2.0,6.0,69,0.00,,,0.00,Wunderground v.1.15,2013-02-13 18:54:00,
2013-02-13 12:55:00,48.6,38.5,30.13,NW,306,2.0,6.0,68,0.00,,,0.00,Wunderground v.1.15,2013-02-13 18:55:00,
2013-02-13 12:56:00,48.8,39.1,30.13,WNW,300,2.0,6.0,69,0.00,,,0.00,Wunderground v.1.15,2013-02-13 18:56:00,
2013-02-13 13:01:00,49.2,39.5,30.13,WSW,254,2.0,2.0,69,0.00,,,0.00,Wunderground v.1.15,2013-02-13 19:01:00,
2013-02-13 13:03:00,49.2,39.1,30.13,WNW,298,2.0,3.0,68,0.00,,,0.00,Wunderground v.1.15,2013-02-13 19:03:00,
2013-02-13 13:04:00,49.1,39.0,30.13,NW,309,2.0,3.0,68,0.00,,,0.00,Wunderground v.1.15,2013-02-13 19:04:00,
2013-02-13 13:08:00,49.4,39.3,30.13,WNW,297,2.0,6.0,68,0.00,,,0.00,Wunderground v.1.15,2013-02-13 19:08:00,
2013-02-13 13:09:00,49.3,39.2,30.13,WNW,286,3.0,6.0,68,0.00,,,0.00,Wunderground v.1.15,2013-02-13 19:09:00,
2013-02-13 13:13:00,48.7,38.6,30.12,NW,315,3.0,3.0,68,0.00,,,0.00,Wunderground v.1.15,2013-02-13 19:13:00,
2013-02-13 13:16:00,48.6,39.3,30.12,SE,132,3.0,3.0,70,0.00,,,0.00,Wunderground v.1.15,2013-02-13 19:16:00,
2013-02-13 13:18:00,49.0,39.6,30.12,SSW,208,3.0,4.0,70,0.00,,,0.00,Wunderground v.1.15,2013-02-13 19:18:00,
2013-02-13 13:19:00,49.3,39.6,30.12,SW,233,2.0,4.0,69,0.00,,,0.00,Wunderground v.1.15,2013-02-13 19:19:00,
2013-02-13 13:22:00,49.6,39.5,30.12,SW,215,2.0,3.0,68,0.00,,,0.00,Wunderground v.1.15,2013-02-13 19:22:00,
2013-02-13 13:24:00,49.9,39.4,30.12,South,187,2.0,3.0,67,0.00,,,0.00,Wunderground v.1.15,2013-02-13 19:24:00,
2013-02-13 13:26:00,50.0,39.8,30.11,South,169,2.0,3.0,68,0.00,,,0.00,Wunderground v.1.15,2013-02-13 19:26:00,
2013-02-13 13:28:00,50.0,39.8,30.11,South,173,2.0,3.0,68,0.00,,,0.00,Wunderground v.1.15,2013-02-13 19:28:00,
2013-02-13 13:31:00,50.5,40.3,30.11,South,178,2.0,2.0,68,0.00,,,0.00,Wunderground v.1.15,2013-02-13 19:31:00,
2013-02-13 13:32:00,50.7,40.1,30.11,SE,138,2.0,2.0,67,0.00,,,0.00,Wunderground v.1.15,2013-02-13 19:32:00,
2013-02-13 13:34:00,50.6,40.0,30.11,SSE,167,3.0,3.0,67,0.00,,,0.00,Wunderground v.1.15,2013-02-13 19:34:00,
2013-02-13 13:36:00,50.8,40.2,30.11,South,188,3.0,4.0,67,0.00,,,0.00,Wunderground v.1.15,2013-02-13 19:36:00,
2013-02-13 13:38:00,50.6,39.3,30.11,South,187,2.0,4.0,65,0.00,,,0.00,Wunderground v.1.15,2013-02-13 19:38:00,
2013-02-13 13:40:00,50.5,39.6,30.11,South,188,2.0,2.0,66,0.00,,,0.00,Wunderground v.1.15,2013-02-13 19:40:00,
2013-02-13 13:41:00,50.3,39.0,30.10,South,188,2.0,2.0,65,0.00,,,0.00,Wunderground v.1.15,2013-02-13 19:41:00,
2013-02-13 13:46:00,50.8,39.8,30.10,SSW,205,1.0,5.0,66,0.00,,,0.00,Wunderground v.1.15,2013-02-13 19:46:00,
2013-02-13 13:48:00,50.9,39.5,30.10,SSW,204,2.0,5.0,65,0.00,,,0.00,Wunderground v.1.15,2013-02-13 19:48:00,
2013-02-13 13:49:00,51.0,40.0,30.10,SSW,200,2.0,5.0,66,0.00,,,0.00,Wunderground v.1.15,2013-02-13 19:49:00,
2013-02-13 13:50:00,51.1,40.1,30.10,SSW,196,2.0,2.0,66,0.00,,,0.00,Wunderground v.1.15,2013-02-13 19:50:00,
2013-02-13 13:53:00,51.1,39.7,30.10,SSW,206,3.0,3.0,65,0.00,,,0.00,Wunderground v.1.15,2013-02-13 19:53:00,
2013-02-13 13:54:00,51.1,39.7,30.10,SSW,193,3.0,4.0,65,0.00,,,0.00,Wunderground v.1.15,2013-02-13 19:54:00,
2013-02-13 13:55:00,51.0,39.6,30.10,SSW,193,3.0,4.0,65,0.00,,,0.00,Wunderground v.1.15,2013-02-13 19:55:00,
2013-02-13 13:56:00,51.1,40.1,30.10,SSW,193,3.0,4.0,66,0.00,,,0.00,Wunderground v.1.15,2013-02-13 19:56:00,
2013-02-13 14:00:00,51.1,39.3,30.10,SSW,197,2.0,3.0,64,0.00,,,0.00,Wunderground v.1.15,2013-02-13 20:00:00,
2013-02-13 14:03:00,51.0,38.8,30.09,SSW,196,2.0,3.0,63,0.00,,,0.00,Wunderground v.1.15,2013-02-13 20:03:00,
2013-02-13 14:04:00,51.0,38.8,30.09,SSE,149,2.0,3.0,63,0.00,,,0.00,Wunderground v.1.15,2013-02-13 20:04:00,
2013-02-13 14:05:00,51.3,39.5,30.09,SSW,209,2.0,3.0,64,0.00,,,0.00,Wunderground v.1.15,2013-02-13 20:05:00,
2013-02-13 14:07:00,51.5,39.7,30.09,West,271,2.0,4.0,64,0.00,,,0.00,Wunderground v.1.15,2013-02-13 20:07:00,
2013-02-13 14:09:00,51.4,38.4,30.09,West,262,2.0,4.0,61,0.00,,,0.00,Wunderground v.1.15,2013-02-13 20:09:00,
2013-02-13 14:10:00,51.1,38.5,30.09,NNE,32,2.0,2.0,62,0.00,,,0.00,Wunderground v.1.15,2013-02-13 20:10:00,
2013-02-13 14:13:00,51.3,39.9,30.09,SSW,205,1.0,4.0,65,0.00,,,0.00,Wunderground v.1.15,2013-02-13 20:13:00,
2013-02-13 14:14:00,51.4,39.2,30.09,SW,236,1.0,4.0,63,0.00,,,0.00,Wunderground v.1.15,2013-02-13 20:14:00,
2013-02-13 14:16:00,51.7,39.5,30.09,SSW,206,1.0,4.0,63,0.00,,,0.00,Wunderground v.1.15,2013-02-13 20:16:00,
2013-02-13 14:19:00,52.3,39.7,30.09,South,188,1.0,4.0,62,0.00,,,0.00,Wunderground v.1.15,2013-02-13 20:19:00,
2013-02-13 14:20:00,52.5,39.8,30.09,SSE,163,1.0,3.0,62,0.00,,,0.00,Wunderground v.1.15,2013-02-13 20:20:00,
2013-02-13 14:23:00,52.8,39.3,30.09,SSW,200,2.0,3.0,60,0.00,,,0.00,Wunderground v.1.15,2013-02-13 20:23:00,
2013-02-13 14:24:00,52.8,39.3,30.09,SSW,199,2.0,3.0,60,0.00,,,0.00,Wunderground v.1.15,2013-02-13 20:24:00,
2013-02-13 14:28:00,53.0,39.5,30.09,SW,220,3.0,5.0,60,0.00,,,0.00,Wunderground v.1.15,2013-02-13 20:28:00,
2013-02-13 14:30:00,52.5,38.6,30.08,South,184,2.0,2.0,59,0.00,,,0.00,Wunderground v.1.15,2013-02-13 20:30:00,
2013-02-13 14:31:00,52.4,38.9,30.08,South,184,2.0,2.0,60,0.00,,,0.00,Wunderground v.1.15,2013-02-13 20:31:00,
2013-02-13 14:34:00,52.7,39.2,30.08,South,176,2.0,3.0,60,0.00,,,0.00,Wunderground v.1.15,2013-02-13 20:34:00,
2013-02-13 14:36:00,53.0,39.5,30.08,SW,226,1.0,3.0,60,0.00,,,0.00,Wunderground v.1.15,2013-02-13 20:36:00,
2013-02-13 14:39:00,53.3,39.3,30.08,SSW,206,1.0,3.0,59,0.00,,,0.00,Wunderground v.1.15,2013-02-13 20:39:00,
2013-02-13 14:40:00,53.4,39.4,30.08,SSE,165,1.0,1.0,59,0.00,,,0.00,Wunderground v.1.15,2013-02-13 20:40:00,
2013-02-13 14:41:00,53.5,39.5,30.08,SW,217,1.0,1.0,59,0.00,,,0.00,Wunderground v.1.15,2013-02-13 20:41:00,
2013-02-13 14:44:00,53.4,39.0,30.08,WNW,286,1.0,2.0,58,0.00,,,0.00,Wunderground v.1.15,2013-02-13 20:44:00,
2013-02-13 14:45:00,53.5,39.1,30.08,WSW,257,1.0,3.0,58,0.00,,,0.00,Wunderground v.1.15,2013-02-13 20:45:00,
2013-02-13 14:48:00,53.4,38.5,30.08,SE,142,1.0,3.0,57,0.00,,,0.00,Wunderground v.1.15,2013-02-13 20:48:00,
2013-02-13 14:49:00,53.5,39.5,30.08,SE,130,1.0,3.0,59,0.00,,,0.00,Wunderground v.1.15,2013-02-13 20:49:00,
2013-02-13 14:51:00,54.1,40.1,30.08,SW,229,1.0,1.0,59,0.00,,,0.00,Wunderground v.1.15,2013-02-13 20:51:00,
2013-02-13 14:53:00,54.1,39.2,30.08,SW,233,1.0,2.0,57,0.00,,,0.00,Wunderground v.1.15,2013-02-13 20:53:00,
2013-02-13 14:56:00,54.2,39.7,30.07,South,185,1.0,5.0,58,0.00,,,0.00,Wunderground v.1.15,2013-02-13 20:56:00,
2013-02-13 14:59:00,54.5,40.0,30.08,SSW,201,2.0,5.0,58,0.00,,,0.00,Wunderground v.1.15,2013-02-13 20:59:00,
2013-02-13 15:01:00,54.6,39.2,30.08,SW,215,2.0,3.0,56,0.00,,,0.00,Wunderground v.1.15,2013-02-13 21:01:00,
2013-02-13 15:06:00,54.3,38.9,30.07,SW,235,2.0,3.0,56,0.00,,,0.00,Wunderground v.1.15,2013-02-13 21:06:00,
2013-02-13 15:07:00,54.3,38.9,30.07,SSW,198,2.0,3.0,56,0.00,,,0.00,Wunderground v.1.15,2013-02-13 21:07:00,
2013-02-13 15:10:00,54.0,37.7,30.07,South,188,2.0,2.0,54,0.00,,,0.00,Wunderground v.1.15,2013-02-13 21:10:00,
2013-02-13 15:14:00,54.1,38.7,30.07,West,267,2.0,2.0,56,0.00,,,0.00,Wunderground v.1.15,2013-02-13 21:14:00,
2013-02-13 15:16:00,54.0,38.6,30.07,WSW,247,1.0,2.0,56,0.00,,,0.00,Wunderground v.1.15,2013-02-13 21:16:00,
2013-02-13 15:18:00,53.9,39.0,30.07,WNW,286,1.0,2.0,57,0.00,,,0.00,Wunderground v.1.15,2013-02-13 21:18:00,
2013-02-13 15:21:00,53.9,38.6,30.07,WSW,251,1.0,2.0,56,0.00,,,0.00,Wunderground v.1.15,2013-02-13 21:21:00,
2013-02-13 15:24:00,54.1,38.7,30.07,South,184,1.0,3.0,56,0.00,,,0.00,Wunderground v.1.15,2013-02-13 21:24:00,
2013-02-13 15:25:00,54.3,38.9,30.07,SW,227,1.0,3.0,56,0.00,,,0.00,Wunderground v.1.15,2013-02-13 21:25:00,
2013-02-13 15:27:00,54.6,38.3,30.06,SW,217,1.0,3.0,54,0.00,,,0.00,Wunderground v.1.15,2013-02-13 21:27:00,
2013-02-13 15:28:00,54.6,38.7,30.07,SSW,194,1.0,3.0,55,0.00,,,0.00,Wunderground v.1.15,2013-02-13 21:28:00,
2013-02-13 15:32:00,54.7,38.4,30.07,SSW,194,1.0,1.0,54,0.00,,,0.00,Wunderground v.1.15,2013-02-13 21:32:00,
2013-02-13 15:33:00,54.6,38.3,30.07,SSW,194,1.0,1.0,54,0.00,,,0.00,Wunderground v.1.15,2013-02-13 21:33:00,
2013-02-13 15:37:00,54.6,38.7,30.06,SSW,194,1.0,3.0,55,0.00,,,0.00,Wunderground v.1.15,2013-02-13 21:37:00,
2013-02-13 15:39:00,55.0,38.2,30.06,WNW,285,1.0,3.0,53,0.00,,,0.00,Wunderground v.1.15,2013-02-13 21:39:00,
2013-02-13 15:41:00,54.9,38.1,30.06,SW,231,1.0,1.0,53,0.00,,,0.00,Wunderground v.1.15,2013-02-13 21:41:00,
2013-02-13 15:43:00,54.9,38.1,30.06,WSW,242,1.0,1.0,53,0.00,,,0.00,Wunderground v.1.15,2013-02-13 21:43:00,
2013-02-13 15:45:00,54.7,38.4,30.06,West,273,1.0,1.0,54,0.00,,,0.00,Wunderground v.1.15,2013-02-13 21:45:00,
2013-02-13 15:47:00,54.5,38.2,30.06,SSE,155,1.0,1.0,54,0.00,,,0.00,Wunderground v.1.15,2013-02-13 21:47:00,
2013-02-13 15:49:00,54.6,37.8,30.06,West,261,1.0,2.0,53,0.00,,,0.00,Wunderground v.1.15,2013-02-13 21:49:00,
2013-02-13 15:50:00,54.6,37.8,30.06,SW,223,1.0,3.0,53,0.00,,,0.00,Wunderground v.1.15,2013-02-13 21:50:00,
2013-02-13 15:52:00,54.6,38.3,30.06,South,181,2.0,3.0,54,0.00,,,0.00,Wunderground v.1.15,2013-02-13 21:52:00,
2013-02-13 15:54:00,54.6,37.8,30.06,SSW,194,2.0,3.0,53,0.00,,,0.00,Wunderground v.1.15,2013-02-13 21:54:00,
2013-02-13 16:00:00,54.6,37.3,30.06,SW,220,2.0,2.0,52,0.00,,,0.00,Wunderground v.1.15,2013-02-13 22:00:00,
2013-02-13 16:01:00,54.5,37.2,30.06,SW,223,2.0,2.0,52,0.00,,,0.00,Wunderground v.1.15,2013-02-13 22:01:00,
2013-02-13 16:04:00,54.3,37.5,30.06,SSE,161,1.0,3.0,53,0.00,,,0.00,Wunderground v.1.15,2013-02-13 22:04:00,
2013-02-13 16:06:00,54.3,37.0,30.06,South,186,2.0,3.0,53,0.00,,,0.00,weatherlink.com 1.10,2013-02-13 22:06:00,
2013-02-13 16:09:00,54.6,38.3,30.06,SSW,200,1.0,4.0,54,0.00,,,0.00,Wunderground v.1.15,2013-02-13 22:09:00,
2013-02-13 16:10:00,54.7,37.9,30.06,SSW,200,2.0,2.0,53,0.00,,,0.00,Wunderground v.1.15,2013-02-13 22:10:00,
2013-02-13 16:11:00,54.7,37.4,30.06,South,188,2.0,2.0,52,0.00,,,0.00,Wunderground v.1.15,2013-02-13 22:11:00,
2013-02-13 16:13:00,54.6,37.8,30.06,South,170,2.0,3.0,53,0.00,,,0.00,Wunderground v.1.15,2013-02-13 22:13:00,
2013-02-13 16:14:00,54.5,37.2,30.06,South,171,2.0,3.0,52,0.00,,,0.00,Wunderground v.1.15,2013-02-13 22:14:00,
2013-02-13 16:17:00,54.5,37.2,30.06,South,171,2.0,3.0,52,0.00,,,0.00,Wunderground v.1.15,2013-02-13 22:17:00,
2013-02-13 16:19:00,54.4,36.6,30.06,South,171,2.0,3.0,51,0.00,,,0.00,Wunderground v.1.15,2013-02-13 22:19:00,
2013-02-13 16:21:00,54.3,36.5,30.06,South,171,1.0,1.0,51,0.00,,,0.00,Wunderground v.1.15,2013-02-13 22:21:00,
2013-02-13 16:24:00,54.1,36.9,30.06,South,171,1.0,1.0,52,0.00,,,0.00,Wunderground v.1.15,2013-02-13 22:24:00,
2013-02-13 16:25:00,54.1,37.3,30.06,South,171,0.0,1.0,53,0.00,,,0.00,Wunderground v.1.15,2013-02-13 22:25:00,
2013-02-13 16:26:00,54.1,36.4,30.06,South,171,0.0,1.0,51,0.00,,,0.00,Wunderground v.1.15,2013-02-13 22:26:00,
2013-02-13 16:29:00,54.2,36.9,30.06,SSW,192,0.0,4.0,52,0.00,,,0.00,Wunderground v.1.15,2013-02-13 22:29:00,
2013-02-13 16:33:00,54.3,37.0,30.06,South,190,1.0,2.0,52,0.00,,,0.00,Wunderground v.1.15,2013-02-13 22:33:00,
2013-02-13 16:34:00,54.3,37.0,30.06,South,190,1.0,2.0,52,0.00,,,0.00,Wunderground v.1.15,2013-02-13 22:34:00,
2013-02-13 16:35:00,54.3,36.5,30.06,South,190,1.0,2.0,51,0.00,,,0.00,Wunderground v.1.15,2013-02-13 22:35:00,
2013-02-13 16:37:00,54.2,36.9,30.06,South,188,2.0,3.0,52,0.00,,,0.00,Wunderground v.1.15,2013-02-13 22:37:00,
2013-02-13 16:39:00,54.2,36.9,30.06,South,188,2.0,3.0,52,0.00,,,0.00,Wunderground v.1.15,2013-02-13 22:39:00,
2013-02-13 16:42:00,54.2,36.9,30.06,South,188,2.0,2.0,52,0.00,,,0.00,Wunderground v.1.15,2013-02-13 22:42:00,
2013-02-13 16:43:00,54.3,37.5,30.06,South,188,2.0,3.0,53,0.00,,,0.00,Wunderground v.1.15,2013-02-13 22:43:00,
2013-02-13 16:45:00,54.3,36.5,30.06,South,188,2.0,3.0,51,0.00,,,0.00,Wunderground v.1.15,2013-02-13 22:45:00,
2013-02-13 16:47:00,54.3,36.5,30.06,South,188,2.0,3.0,51,0.00,,,0.00,Wunderground v.1.15,2013-02-13 22:47:00,
2013-02-13 16:51:00,54.3,36.0,30.06,South,188,1.0,4.0,51,0.00,,,0.00,weatherlink.com 1.10,2013-02-13 22:51:00,
2013-02-13 16:52:00,54.2,36.5,30.06,South,188,2.0,2.0,51,0.00,,,0.00,Wunderground v.1.15,2013-02-13 22:52:00,
2013-02-13 16:54:00,54.2,36.5,30.06,South,188,1.0,2.0,51,0.00,,,0.00,Wunderground v.1.15,2013-02-13 22:54:00,
2013-02-13 16:55:00,54.3,36.5,30.06,South,188,1.0,2.0,51,0.00,,,0.00,Wunderground v.1.15,2013-02-13 22:55:00,
2013-02-13 16:57:00,54.3,37.0,30.06,South,187,1.0,2.0,52,0.00,,,0.00,Wunderground v.1.15,2013-02-13 22:57:00,
2013-02-13 16:59:00,54.3,36.5,30.06,South,187,1.0,2.0,51,0.00,,,0.00,Wunderground v.1.15,2013-02-13 22:59:00,
2013-02-13 17:01:00,54.4,36.6,30.06,South,188,1.0,2.0,51,0.00,,,0.00,Wunderground v.1.15,2013-02-13 23:01:00,
2013-02-13 17:02:00,54.3,36.5,30.05,South,188,1.0,4.0,51,0.00,,,0.00,Wunderground v.1.15,2013-02-13 23:02:00,
2013-02-13 17:05:00,54.2,36.9,30.05,South,188,1.0,4.0,52,0.00,,,0.00,Wunderground v.1.15,2013-02-13 23:05:00,
2013-02-13 17:08:00,54.1,37.3,30.06,South,188,2.0,4.0,53,0.00,,,0.00,Wunderground v.1.15,2013-02-13 23:08:00,
2013-02-13 17:10:00,54.1,37.3,30.05,South,188,2.0,2.0,53,0.00,,,0.00,Wunderground v.1.15,2013-02-13 23:10:00,
2013-02-13 17:12:00,54.1,36.9,30.05,South,188,2.0,2.0,52,0.00,,,0.00,Wunderground v.1.15,2013-02-13 23:12:00,
2013-02-13 17:14:00,54.1,36.9,30.05,South,188,2.0,4.0,52,0.00,,,0.00,Wunderground v.1.15,2013-02-13 23:14:00,
2013-02-13 17:15:00,54.1,37.3,30.05,South,187,2.0,4.0,53,0.00,,,0.00,Wunderground v.1.15,2013-02-13 23:15:00,
2013-02-13 17:19:00,53.9,37.6,30.05,South,179,2.0,4.0,54,0.00,,,0.00,Wunderground v.1.15,2013-02-13 23:19:00,
2013-02-13 17:20:00,53.9,37.1,30.05,South,179,2.0,3.0,53,0.00,,,0.00,Wunderground v.1.15,2013-02-13 23:20:00,
2013-02-13 17:24:00,53.8,37.5,30.05,South,179,2.0,3.0,54,0.00,,,0.00,Wunderground v.1.15,2013-02-13 23:24:00,
2013-02-13 17:25:00,53.8,37.5,30.05,South,179,1.0,3.0,54,0.00,,,0.00,Wunderground v.1.15,2013-02-13 23:25:00,
2013-02-13 17:27:00,53.8,37.5,30.05,South,179,1.0,3.0,54,0.00,,,0.00,Wunderground v.1.15,2013-02-13 23:27:00,
2013-02-13 17:28:00,53.8,38.0,30.05,South,179,1.0,3.0,55,0.00,,,0.00,Wunderground v.1.15,2013-02-13 23:28:00,
2013-02-13 17:30:00,53.9,37.6,30.05,South,179,0.0,2.0,54,0.00,,,0.00,Wunderground v.1.15,2013-02-13 23:30:00,
2013-02-13 17:33:00,53.8,37.5,30.05,South,179,1.0,2.0,54,0.00,,,0.00,Wunderground v.1.15,2013-02-13 23:33:00,
2013-02-13 17:34:00,53.7,37.4,30.05,South,179,1.0,2.0,54,0.00,,,0.00,Wunderground v.1.15,2013-02-13 23:34:00,
2013-02-13 17:36:00,53.6,37.8,30.05,South,179,1.0,2.0,55,0.00,,,0.00,Wunderground v.1.15,2013-02-13 23:36:00,
2013-02-13 17:38:00,53.5,37.7,30.05,South,179,1.0,2.0,55,0.00,,,0.00,Wunderground v.1.15,2013-02-13 23:38:00,
2013-02-13 17:39:00,53.4,38.1,30.05,South,179,1.0,2.0,56,0.00,,,0.00,Wunderground v.1.15,2013-02-13 23:39:00,
2013-02-13 17:41:00,53.3,37.5,30.05,South,179,1.0,1.0,55,0.00,,,0.00,Wunderground v.1.15,2013-02-13 23:41:00,
2013-02-13 17:43:00,53.1,37.3,30.05,South,179,1.0,4.0,55,0.00,,,0.00,Wunderground v.1.15,2013-02-13 23:43:00,
2013-02-13 17:47:00,52.8,36.6,30.05,South,179,1.0,4.0,54,0.00,,,0.00,Wunderground v.1.15,2013-02-13 23:47:00,
2013-02-13 17:49:00,52.7,37.0,30.05,South,179,1.0,4.0,55,0.00,,,0.00,Wunderground v.1.15,2013-02-13 23:49:00,
2013-02-13 17:51:00,52.6,36.9,30.05,South,180,2.0,2.0,55,0.00,,,0.00,Wunderground v.1.15,2013-02-13 23:51:00,
2013-02-13 17:53:00,52.4,36.7,30.05,South,178,2.0,3.0,55,0.00,,,0.00,Wunderground v.1.15,2013-02-13 23:53:00,
2013-02-13 17:54:00,52.3,36.6,30.05,South,178,2.0,3.0,55,0.00,,,0.00,Wunderground v.1.15,2013-02-13 23:54:00,
2013-02-13 17:56:00,52.2,36.5,30.05,South,179,2.0,3.0,55,0.00,,,0.00,Wunderground v.1.15,2013-02-13 23:56:00,
2013-02-13 17:58:00,52.1,36.9,30.05,South,179,2.0,3.0,56,0.00,,,0.00,Wunderground v.1.15,2013-02-13 23:58:00,
2013-02-13 17:59:00,52.1,36.9,30.05,South,179,2.0,3.0,56,0.00,,,0.00,Wunderground v.1.15,2013-02-13 23:59:00,
2013-02-13 18:03:00,51.8,36.6,30.05,South,179,1.0,2.0,56,0.00,,,0.00,Wunderground v.1.15,2013-02-14 00:03:00,
2013-02-13 18:04:00,51.7,36.9,30.05,South,179,1.0,2.0,57,0.00,,,0.00,Wunderground v.1.15,2013-02-14 00:04:00,
2013-02-13 18:05:00,51.7,36.9,30.05,South,179,1.0,2.0,57,0.00,,,0.00,Wunderground v.1.15,2013-02-14 00:05:00,
2013-02-13 18:08:00,51.4,36.7,30.05,South,179,1.0,2.0,57,0.00,,,0.00,Wunderground v.1.15,2013-02-14 00:08:00,
2013-02-13 18:10:00,51.3,37.0,30.05,South,179,1.0,1.0,58,0.00,,,0.00,Wunderground v.1.15,2013-02-14 00:10:00,
2013-02-13 18:12:00,51.2,36.9,30.05,South,179,1.0,4.0,58,0.00,,,0.00,Wunderground v.1.15,2013-02-14 00:12:00,
2013-02-13 18:17:00,50.8,36.5,30.05,South,179,1.0,4.0,58,0.00,,,0.00,Wunderground v.1.15,2013-02-14 00:17:00,
2013-02-13 18:19:00,50.7,36.9,30.05,South,179,1.0,4.0,59,0.00,,,0.00,Wunderground v.1.15,2013-02-14 00:19:00,
2013-02-13 18:22:00,50.5,36.7,30.05,South,179,2.0,3.0,59,0.00,,,0.00,Wunderground v.1.15,2013-02-14 00:22:00,
2013-02-13 18:23:00,50.4,36.6,30.04,South,178,2.0,3.0,59,0.00,,,0.00,Wunderground v.1.15,2013-02-14 00:23:00,
2013-02-13 18:25:00,50.4,37.0,30.04,South,178,2.0,3.0,60,0.00,,,0.00,Wunderground v.1.15,2013-02-14 00:25:00,
2013-02-13 18:26:00,50.3,36.9,30.04,South,178,2.0,3.0,60,0.00,,,0.00,Wunderground v.1.15,2013-02-14 00:26:00,
2013-02-13 18:30:00,50.1,36.7,30.04,South,176,2.0,3.0,60,0.00,,,0.00,Wunderground v.1.15,2013-02-14 00:30:00,
2013-02-13 18:32:00,50.0,36.7,30.04,South,173,2.0,3.0,60,0.00,,,0.00,Wunderground v.1.15,2013-02-14 00:32:00,
2013-02-13 18:33:00,50.0,36.2,30.04,South,173,2.0,3.0,59,0.00,,,0.00,Wunderground v.1.15,2013-02-14 00:33:00,
2013-02-13 18:36:00,49.8,36.5,30.04,SSE,159,2.0,3.0,60,0.00,,,0.00,Wunderground v.1.15,2013-02-14 00:36:00,
2013-02-13 18:39:00,49.7,36.4,30.04,South,180,2.0,6.0,60,0.00,,,0.00,Wunderground v.1.15,2013-02-14 00:39:00,
2013-02-13 18:40:00,49.7,36.4,30.05,SSE,151,2.0,4.0,60,0.00,,,0.00,Wunderground v.1.15,2013-02-14 00:40:00,
2013-02-13 18:41:00,49.7,36.4,30.05,SSE,156,3.0,4.0,60,0.00,,,0.00,Wunderground v.1.15,2013-02-14 00:41:00,
2013-02-13 18:42:00,49.7,36.4,30.04,South,180,3.0,4.0,60,0.00,,,0.00,Wunderground v.1.15,2013-02-14 00:42:00,
2013-02-13 18:45:00,49.6,36.7,30.05,South,173,3.0,5.0,61,0.00,,,0.00,Wunderground v.1.15,2013-02-14 00:45:00,
2013-02-13 18:48:00,49.6,37.1,30.04,SSE,166,3.0,5.0,62,0.00,,,0.00,Wunderground v.1.15,2013-02-14 00:48:00,
2013-02-13 18:50:00,49.6,37.1,30.04,South,183,3.0,5.0,62,0.00,,,0.00,Wunderground v.1.15,2013-02-14 00:50:00,
2013-02-13 18:51:00,49.5,37.0,30.04,South,178,3.0,5.0,62,0.00,,,0.00,Wunderground v.1.15,2013-02-14 00:51:00,
2013-02-13 18:52:00,49.6,37.1,30.04,SSE,163,3.0,5.0,62,0.00,,,0.00,Wunderground v.1.15,2013-02-14 00:52:00,
2013-02-13 18:53:00,49.5,37.0,30.04,SSE,153,3.0,5.0,62,0.00,,,0.00,Wunderground v.1.15,2013-02-14 00:53:00,
2013-02-13 18:56:00,49.5,37.4,30.04,SSE,155,3.0,5.0,63,0.00,,,0.00,Wunderground v.1.15,2013-02-14 00:56:00,
2013-02-13 18:57:00,49.5,37.4,30.04,SSE,164,3.0,5.0,63,0.00,,,0.00,Wunderground v.1.15,2013-02-14 00:57:00,
2013-02-13 18:59:00,49.4,37.3,30.04,SSE,167,3.0,5.0,63,0.00,,,0.00,Wunderground v.1.15,2013-02-14 00:59:00,
2013-02-13 19:01:00,49.4,37.3,30.04,SSE,161,3.0,4.0,63,0.00,,,0.00,Wunderground v.1.15,2013-02-14 01:01:00,
2013-02-13 19:04:00,49.3,37.2,30.04,SE,143,3.0,4.0,63,0.00,,,0.00,Wunderground v.1.15,2013-02-14 01:04:00,
2013-02-13 19:05:00,49.2,37.1,30.04,South,172,3.0,4.0,63,0.00,,,0.00,Wunderground v.1.15,2013-02-14 01:05:00,
2013-02-13 19:06:00,49.2,37.5,30.04,SSE,164,3.0,4.0,64,0.00,,,0.00,Wunderground v.1.15,2013-02-14 01:06:00,
2013-02-13 19:10:00,49.1,37.4,30.04,SSE,167,3.0,5.0,64,0.00,,,0.00,Wunderground v.1.15,2013-02-14 01:10:00,
2013-02-13 19:11:00,49.1,37.4,30.05,South,182,4.0,5.0,64,0.00,,,0.00,Wunderground v.1.15,2013-02-14 01:11:00,
2013-02-13 19:13:00,49.0,37.3,30.05,SSW,193,4.0,6.0,64,0.00,,,0.00,Wunderground v.1.15,2013-02-14 01:13:00,
2013-02-13 19:15:00,49.0,37.3,30.05,South,171,4.0,6.0,64,0.00,,,0.00,Wunderground v.1.15,2013-02-14 01:15:00,
2013-02-13 19:18:00,48.9,37.3,30.05,South,172,3.0,6.0,64,0.00,,,0.00,Wunderground v.1.15,2013-02-14 01:18:00,
2013-02-13 19:19:00,48.8,37.2,30.05,South,184,3.0,6.0,64,0.00,,,0.00,Wunderground v.1.15,2013-02-14 01:19:00,
2013-02-13 19:22:00,48.8,37.6,30.05,South,174,3.0,3.0,65,0.00,,,0.00,Wunderground v.1.15,2013-02-14 01:22:00,
2013-02-13 19:24:00,48.7,37.1,30.05,South,178,3.0,4.0,64,0.00,,,0.00,Wunderground v.1.15,2013-02-14 01:24:00,
2013-02-13 19:27:00,48.6,37.4,30.05,SSE,163,3.0,4.0,65,0.00,,,0.00,Wunderground v.1.15,2013-02-14 01:27:00,
2013-02-13 19:30:00,48.5,37.3,30.05,SSE,161,3.0,4.0,65,0.00,,,0.00,Wunderground v.1.15,2013-02-14 01:30:00,
2013-02-13 19:31:00,48.5,37.3,30.05,SSE,159,3.0,4.0,65,0.00,,,0.00,Wunderground v.1.15,2013-02-14 01:31:00,
2013-02-13 19:35:00,48.4,37.2,30.05,SSE,165,3.0,4.0,65,0.00,,,0.00,Wunderground v.1.15,2013-02-14 01:35:00,
2013-02-13 19:36:00,48.3,37.1,30.05,SSE,165,3.0,4.0,65,0.00,,,0.00,Wunderground v.1.15,2013-02-14 01:36:00,
2013-02-13 19:37:00,48.3,37.1,30.05,SSW,192,3.0,4.0,65,0.00,,,0.00,Wunderground v.1.15,2013-02-14 01:37:00,
2013-02-13 19:40:00,48.2,37.0,30.05,SSE,155,3.0,4.0,65,0.00,,,0.00,Wunderground v.1.15,2013-02-14 01:40:00,
2013-02-13 19:42:00,48.2,37.0,30.05,SSW,198,3.0,4.0,65,0.00,,,0.00,Wunderground v.1.15,2013-02-14 01:42:00,
2013-02-13 19:44:00,48.2,37.0,30.05,South,174,3.0,6.0,65,0.00,,,0.00,Wunderground v.1.15,2013-02-14 01:44:00,
2013-02-13 19:46:00,48.1,36.9,30.05,SSE,159,3.0,6.0,65,0.00,,,0.00,Wunderground v.1.15,2013-02-14 01:46:00,
2013-02-13 19:49:00,48.1,36.9,30.05,SSE,153,3.0,6.0,65,0.00,,,0.00,Wunderground v.1.15,2013-02-14 01:49:00,
2013-02-13 19:53:00,47.9,37.1,30.05,SSE,167,3.0,4.0,66,0.00,,,0.00,Wunderground v.1.15,2013-02-14 01:53:00,
2013-02-13 19:54:00,47.9,37.1,30.05,SSW,193,3.0,4.0,66,0.00,,,0.00,Wunderground v.1.15,2013-02-14 01:54:00,
2013-02-13 19:55:00,47.9,37.1,30.05,SSE,154,3.0,4.0,66,0.00,,,0.00,Wunderground v.1.15,2013-02-14 01:55:00,
2013-02-13 19:57:00,47.8,37.0,30.05,South,178,3.0,6.0,66,0.00,,,0.00,Wunderground v.1.15,2013-02-14 01:57:00,
2013-02-13 20:00:00,47.8,37.4,30.05,SE,135,3.0,3.0,67,0.00,,,0.00,Wunderground v.1.15,2013-02-14 02:00:00,
2013-02-13 20:02:00,47.7,37.3,30.05,SSE,163,3.0,3.0,67,0.00,,,0.00,Wunderground v.1.15,2013-02-14 02:02:00,
2013-02-13 20:04:00,47.7,37.3,30.05,South,174,3.0,5.0,67,0.00,,,0.00,Wunderground v.1.15,2013-02-14 02:04:00,
2013-02-13 20:05:00,47.7,37.7,30.05,SSW,198,3.0,5.0,68,0.00,,,0.00,Wunderground v.1.15,2013-02-14 02:05:00,
2013-02-13 20:06:00,47.6,37.6,30.05,SSW,202,3.0,5.0,68,0.00,,,0.00,Wunderground v.1.15,2013-02-14 02:06:00,
2013-02-13 20:08:00,47.6,37.6,30.05,SSE,164,3.0,5.0,68,0.00,,,0.00,Wunderground v.1.15,2013-02-14 02:08:00,
2013-02-13 20:11:00,47.5,37.5,30.06,South,173,3.0,4.0,68,0.00,,,0.00,Wunderground v.1.15,2013-02-14 02:11:00,
2013-02-13 20:16:00,47.4,37.7,30.05,South,184,3.0,4.0,69,0.00,,,0.00,Wunderground v.1.15,2013-02-14 02:16:00,
2013-02-13 20:17:00,47.4,37.7,30.05,South,188,3.0,4.0,69,0.00,,,0.00,Wunderground v.1.15,2013-02-14 02:17:00,
2013-02-13 20:19:00,47.3,37.6,30.06,SE,145,3.0,4.0,69,0.00,,,0.00,Wunderground v.1.15,2013-02-14 02:19:00,
2013-02-13 20:22:00,47.2,37.5,30.06,SSE,165,3.0,3.0,69,0.00,,,0.00,Wunderground v.1.15,2013-02-14 02:22:00,
2013-02-13 20:24:00,47.1,37.4,30.06,SSW,210,3.0,4.0,69,0.00,,,0.00,Wunderground v.1.15,2013-02-14 02:24:00,
2013-02-13 20:27:00,47.0,37.7,30.05,South,183,3.0,4.0,70,0.00,,,0.00,Wunderground v.1.15,2013-02-14 02:27:00,
2013-02-13 20:28:00,47.0,37.7,30.06,SSE,157,3.0,4.0,70,0.00,,,0.00,Wunderground v.1.15,2013-02-14 02:28:00,
2013-02-13 20:29:00,46.9,37.6,30.06,SSE,156,3.0,4.0,70,0.00,,,0.00,Wunderground v.1.15,2013-02-14 02:29:00,
2013-02-13 20:32:00,46.9,37.6,30.06,SSW,198,3.0,6.0,70,0.00,,,0.00,Wunderground v.1.15,2013-02-14 02:32:00,
2013-02-13 20:33:00,46.8,37.5,30.06,SSE,163,3.0,6.0,70,0.00,,,0.00,Wunderground v.1.15,2013-02-14 02:33:00,
2013-02-13 20:34:00,46.8,37.5,30.06,SSW,207,3.0,6.0,70,0.00,,,0.00,Wunderground v.1.15,2013-02-14 02:34:00,
2013-02-13 20:36:00,46.7,37.4,30.05,SSW,198,3.0,6.0,70,0.00,,,0.00,Wunderground v.1.15,2013-02-14 02:36:00,
2013-02-13 20:39:00,46.6,37.3,30.06,SSE,157,3.0,8.0,70,0.00,,,0.00,Wunderground v.1.15,2013-02-14 02:39:00,
2013-02-13 20:42:00,46.6,37.7,30.06,South,181,3.0,5.0,71,0.00,,,0.00,Wunderground v.1.15,2013-02-14 02:42:00,
2013-02-13 20:44:00,46.5,37.6,30.06,SSW,194,3.0,5.0,71,0.00,,,0.00,Wunderground v.1.15,2013-02-14 02:44:00,
2013-02-13 20:46:00,46.5,37.6,30.06,SE,146,3.0,5.0,71,0.00,,,0.00,Wunderground v.1.15,2013-02-14 02:46:00,
2013-02-13 20:48:00,46.5,37.6,30.06,SSE,163,3.0,5.0,71,0.00,,,0.00,Wunderground v.1.15,2013-02-14 02:48:00,
2013-02-13 20:49:00,46.4,37.5,30.06,South,173,3.0,5.0,71,0.00,,,0.00,Wunderground v.1.15,2013-02-14 02:49:00,
2013-02-13 20:51:00,46.4,37.5,30.06,SSW,209,3.0,3.0,71,0.00,,,0.00,Wunderground v.1.15,2013-02-14 02:51:00,
2013-02-13 20:55:00,46.4,37.9,30.06,SSW,209,3.0,4.0,72,0.00,,,0.00,Wunderground v.1.15,2013-02-14 02:55:00,
2013-02-13 20:56:00,46.4,37.9,30.06,SSW,202,3.0,4.0,72,0.00,,,0.00,Wunderground v.1.15,2013-02-14 02:56:00,
2013-02-13 20:57:00,46.4,37.9,30.06,SSE,159,3.0,4.0,72,0.00,,,0.00,Wunderground v.1.15,2013-02-14 02:57:00,
2013-02-13 21:01:00,46.3,37.8,30.06,SW,215,3.0,3.0,72,0.00,,,0.00,Wunderground v.1.15,2013-02-14 03:01:00,
2013-02-13 21:02:00,46.3,37.8,30.06,SSE,163,3.0,3.0,72,0.00,,,0.00,Wunderground v.1.15,2013-02-14 03:02:00,
2013-02-13 21:05:00,46.2,37.7,30.06,South,186,3.0,3.0,72,0.00,,,0.00,Wunderground v.1.15,2013-02-14 03:05:00,
2013-02-13 21:07:00,46.1,37.6,30.06,SSE,168,3.0,3.0,72,0.00,,,0.00,Wunderground v.1.15,2013-02-14 03:07:00,
2013-02-13 21:09:00,46.0,37.5,30.06,SSE,159,3.0,5.0,72,0.00,,,0.00,Wunderground v.1.15,2013-02-14 03:09:00,
2013-02-13 21:11:00,46.0,37.8,30.06,South,169,3.0,3.0,73,0.00,,,0.00,Wunderground v.1.15,2013-02-14 03:11:00,
2013-02-13 21:14:00,45.9,37.7,30.06,SSE,161,3.0,5.0,73,0.00,,,0.00,Wunderground v.1.15,2013-02-14 03:14:00,
2013-02-13 21:15:00,45.9,37.7,30.06,South,184,3.0,5.0,73,0.00,,,0.00,Wunderground v.1.15,2013-02-14 03:15:00,
2013-02-13 21:18:00,45.9,37.7,30.06,SSE,167,3.0,5.0,73,0.00,,,0.00,Wunderground v.1.15,2013-02-14 03:18:00,
2013-02-13 21:20:00,45.8,37.6,30.06,South,175,3.0,3.0,73,0.00,,,0.00,Wunderground v.1.15,2013-02-14 03:20:00,
2013-02-13 21:22:00,45.8,37.6,30.06,South,179,3.0,3.0,73,0.00,,,0.00,Wunderground v.1.15,2013-02-14 03:22:00,
2013-02-13 21:24:00,45.8,37.6,30.06,South,169,3.0,4.0,73,0.00,,,0.00,Wunderground v.1.15,2013-02-14 03:24:00,
2013-02-13 21:29:00,45.7,37.5,30.06,South,170,3.0,4.0,73,0.00,,,0.00,Wunderground v.1.15,2013-02-14 03:29:00,
2013-02-13 21:30:00,45.7,37.5,30.07,South,182,3.0,3.0,73,0.00,,,0.00,Wunderground v.1.15,2013-02-14 03:30:00,
2013-02-13 21:31:00,45.7,37.5,30.07,South,175,3.0,3.0,73,0.00,,,0.00,Wunderground v.1.15,2013-02-14 03:31:00,
2013-02-13 21:33:00,45.6,37.4,30.07,SSE,162,3.0,3.0,73,0.00,,,0.00,Wunderground v.1.15,2013-02-14 03:33:00,
2013-02-13 21:34:00,45.6,37.4,30.07,SSE,150,3.0,3.0,73,0.00,,,0.00,Wunderground v.1.15,2013-02-14 03:34:00,
2013-02-13 21:37:00,45.6,37.8,30.07,South,173,3.0,3.0,74,0.00,,,0.00,Wunderground v.1.15,2013-02-14 03:37:00,
2013-02-13 21:38:00,45.6,37.8,30.07,SSW,195,3.0,3.0,74,0.00,,,0.00,Wunderground v.1.15,2013-02-14 03:38:00,
2013-02-13 21:39:00,45.5,37.7,30.07,South,171,3.0,3.0,74,0.00,,,0.00,Wunderground v.1.15,2013-02-14 03:39:00,
2013-02-13 21:43:00,45.5,37.7,30.07,SSE,167,2.0,4.0,74,0.00,,,0.00,Wunderground v.1.15,2013-02-14 03:43:00,
2013-02-13 21:45:00,45.4,37.6,30.07,South,177,3.0,4.0,74,0.00,,,0.00,Wunderground v.1.15,2013-02-14 03:45:00,
2013-02-13 21:50:00,45.3,37.5,30.07,SSE,149,3.0,3.0,74,0.00,,,0.00,Wunderground v.1.15,2013-02-14 03:50:00,
2013-02-13 21:51:00,45.3,37.5,30.07,SSE,159,3.0,3.0,74,0.00,,,0.00,Wunderground v.1.15,2013-02-14 03:51:00,
2013-02-13 21:55:00,45.2,37.4,30.07,South,172,2.0,3.0,74,0.00,,,0.00,Wunderground v.1.15,2013-02-14 03:55:00,
2013-02-13 21:56:00,45.2,37.4,30.07,SSW,195,3.0,6.0,74,0.00,,,0.00,Wunderground v.1.15,2013-02-14 03:56:00,
2013-02-13 21:59:00,45.2,37.4,30.07,South,171,3.0,6.0,74,0.00,,,0.00,Wunderground v.1.15,2013-02-14 03:59:00,
2013-02-13 22:00:00,45.1,37.6,30.07,SSE,167,3.0,3.0,75,0.00,,,0.00,Wunderground v.1.15,2013-02-14 04:00:00,
2013-02-13 22:02:00,45.1,37.6,30.07,South,186,3.0,3.0,75,0.00,,,0.00,Wunderground v.1.15,2013-02-14 04:02:00,
2013-02-13 22:05:00,45.1,37.6,30.07,South,184,3.0,3.0,75,0.00,,,0.00,Wunderground v.1.15,2013-02-14 04:05:00,
2013-02-13 22:07:00,45.1,37.6,30.07,South,180,3.0,4.0,75,0.00,,,0.00,Wunderground v.1.15,2013-02-14 04:07:00,
2013-02-13 22:08:00,45.0,37.6,30.07,South,175,3.0,4.0,75,0.00,,,0.00,Wunderground v.1.15,2013-02-14 04:08:00,
2013-02-13 22:10:00,45.0,37.6,30.07,South,178,3.0,3.0,75,0.00,,,0.00,Wunderground v.1.15,2013-02-14 04:10:00,
2013-02-13 22:11:00,45.0,37.6,30.07,South,170,3.0,4.0,75,0.00,,,0.00,Wunderground v.1.15,2013-02-14 04:11:00,
2013-02-13 22:13:00,44.9,37.5,30.07,SSE,167,3.0,4.0,75,0.00,,,0.00,Wunderground v.1.15,2013-02-14 04:13:00,
2013-02-13 22:15:00,44.9,37.5,30.07,SSE,166,3.0,4.0,75,0.00,,,0.00,Wunderground v.1.15,2013-02-14 04:15:00,
2013-02-13 22:16:00,44.9,37.5,30.07,SSE,167,3.0,4.0,75,0.00,,,0.00,Wunderground v.1.15,2013-02-14 04:16:00,
2013-02-13 22:19:00,44.9,37.8,30.07,South,169,3.0,4.0,76,0.00,,,0.00,Wunderground v.1.15,2013-02-14 04:19:00,
2013-02-13 22:23:00,44.8,37.7,30.07,SSE,159,2.0,4.0,76,0.00,,,0.00,Wunderground v.1.15,2013-02-14 04:23:00,
2013-02-13 22:25:00,44.7,37.6,30.07,South,183,3.0,4.0,76,0.00,,,0.00,Wunderground v.1.15,2013-02-14 04:25:00,
2013-02-13 22:29:00,44.7,37.6,30.07,South,181,2.0,4.0,76,0.00,,,0.00,Wunderground v.1.15,2013-02-14 04:29:00,
2013-02-13 22:33:00,44.6,37.8,30.07,South,170,3.0,3.0,77,0.00,,,0.00,Wunderground v.1.15,2013-02-14 04:33:00,
2013-02-13 22:36:00,44.5,37.7,30.07,South,190,3.0,4.0,77,0.00,,,0.00,Wunderground v.1.15,2013-02-14 04:36:00,
2013-02-13 22:37:00,44.5,37.7,30.07,South,169,3.0,4.0,77,0.00,,,0.00,Wunderground v.1.15,2013-02-14 04:37:00,
2013-02-13 22:39:00,44.5,37.7,30.07,SSE,157,3.0,4.0,77,0.00,,,0.00,Wunderground v.1.15,2013-02-14 04:39:00,
2013-02-13 22:40:00,44.5,37.7,30.07,SSE,167,3.0,3.0,77,0.00,,,0.00,Wunderground v.1.15,2013-02-14 04:40:00,
2013-02-13 22:43:00,44.5,38.1,30.07,South,181,3.0,4.0,78,0.00,,,0.00,Wunderground v.1.15,2013-02-14 04:43:00,
2013-02-13 22:47:00,44.4,38.0,30.07,South,187,3.0,4.0,78,0.00,,,0.00,Wunderground v.1.15,2013-02-14 04:47:00,
2013-02-13 22:48:00,44.4,38.0,30.07,South,169,3.0,4.0,78,0.00,,,0.00,Wunderground v.1.15,2013-02-14 04:48:00,
2013-02-13 22:50:00,44.3,37.9,30.07,South,180,3.0,3.0,78,0.00,,,0.00,Wunderground v.1.15,2013-02-14 04:50:00,
2013-02-13 22:54:00,44.3,38.2,30.07,South,190,3.0,5.0,79,0.00,,,0.00,Wunderground v.1.15,2013-02-14 04:54:00,
2013-02-13 22:56:00,44.2,38.1,30.07,South,169,3.0,6.0,79,0.00,,,0.00,Wunderground v.1.15,2013-02-14 04:56:00,
2013-02-13 22:57:00,44.2,38.1,30.07,SSW,204,3.0,6.0,79,0.00,,,0.00,Wunderground v.1.15,2013-02-14 04:57:00,
2013-02-13 22:59:00,44.2,38.1,30.07,South,184,3.0,6.0,79,0.00,,,0.00,Wunderground v.1.15,2013-02-14 04:59:00,
2013-02-13 23:00:00,44.2,38.1,30.07,South,184,3.0,3.0,79,0.00,,,0.00,Wunderground v.1.15,2013-02-14 05:00:00,
2013-02-13 23:01:00,44.2,38.1,30.07,South,184,3.0,3.0,79,0.00,,,0.00,Wunderground v.1.15,2013-02-14 05:01:00,
2013-02-13 23:05:00,44.2,38.1,30.07,South,184,3.0,5.0,79,0.00,,,0.00,Wunderground v.1.15,2013-02-14 05:05:00,
2013-02-13 23:06:00,44.2,38.1,30.07,South,188,3.0,5.0,79,0.00,,,0.00,Wunderground v.1.15,2013-02-14 05:06:00,
2013-02-13 23:07:00,44.2,38.1,30.07,South,182,3.0,5.0,79,0.00,,,0.00,Wunderground v.1.15,2013-02-14 05:07:00,
2013-02-13 23:08:00,44.2,38.0,30.07,South,191,3.0,6.0,79,0.00,,,0.00,weatherlink.com 1.10,2013-02-14 05:08:00,
2013-02-13 23:11:00,44.2,38.1,30.07,South,173,3.0,3.0,79,0.00,,,0.00,Wunderground v.1.15,2013-02-14 05:11:00,
2013-02-13 23:12:00,44.2,38.1,30.07,SSE,168,4.0,4.0,79,0.00,,,0.00,Wunderground v.1.15,2013-02-14 05:12:00,
2013-02-13 23:13:00,44.2,38.1,30.07,SSW,200,4.0,4.0,79,0.00,,,0.00,Wunderground v.1.15,2013-02-14 05:13:00,
2013-02-13 23:16:00,44.2,38.1,30.07,SSW,194,4.0,5.0,79,0.00,,,0.00,Wunderground v.1.15,2013-02-14 05:16:00,
2013-02-13 23:17:00,44.2,38.1,30.07,SSW,202,4.0,5.0,79,0.00,,,0.00,Wunderground v.1.15,2013-02-14 05:17:00,
2013-02-13 23:18:00,44.2,38.1,30.07,SSW,196,4.0,5.0,79,0.00,,,0.00,Wunderground v.1.15,2013-02-14 05:18:00,
2013-02-13 23:21:00,44.1,38.0,30.07,SSW,204,3.0,3.0,79,0.00,,,0.00,Wunderground v.1.15,2013-02-14 05:21:00,
2013-02-13 23:22:00,44.1,38.0,30.07,South,185,3.0,4.0,79,0.00,,,0.00,Wunderground v.1.15,2013-02-14 05:22:00,
2013-02-13 23:26:00,44.1,38.3,30.07,SW,215,4.0,5.0,80,0.00,,,0.00,Wunderground v.1.15,2013-02-14 05:26:00,
2013-02-13 23:27:00,44.1,38.3,30.08,SSW,195,4.0,5.0,80,0.00,,,0.00,Wunderground v.1.15,2013-02-14 05:27:00,
2013-02-13 23:28:00,44.1,38.3,30.08,South,180,4.0,5.0,80,0.00,,,0.00,Wunderground v.1.15,2013-02-14 05:28:00,
2013-02-13 23:29:00,44.1,38.3,30.08,SSW,198,4.0,5.0,80,0.00,,,0.00,Wunderground v.1.15,2013-02-14 05:29:00,
2013-02-13 23:32:00,44.1,38.3,30.08,SSW,197,4.0,5.0,80,0.00,,,0.00,Wunderground v.1.15,2013-02-14 05:32:00,
2013-02-13 23:34:00,44.1,38.3,30.08,SW,223,3.0,5.0,80,0.00,,,0.00,Wunderground v.1.15,2013-02-14 05:34:00,
2013-02-13 23:36:00,44.0,38.2,30.08,SSW,202,3.0,5.0,80,0.00,,,0.00,Wunderground v.1.15,2013-02-14 05:36:00,
2013-02-13 23:37:00,44.0,38.0,30.08,South,169,5.0,7.0,80,0.00,,,0.00,weatherlink.com 1.10,2013-02-14 05:37:00,
2013-02-13 23:39:00,44.0,38.2,30.08,SSW,211,4.0,5.0,80,0.00,,,0.00,Wunderground v.1.15,2013-02-14 05:39:00,
2013-02-13 23:40:00,44.0,38.2,30.08,SSW,207,4.0,5.0,80,0.00,,,0.00,Wunderground v.1.15,2013-02-14 05:40:00,
2013-02-13 23:41:00,44.0,38.2,30.08,SSW,203,4.0,5.0,80,0.00,,,0.00,Wunderground v.1.15,2013-02-14 05:41:00,
2013-02-13 23:45:00,44.0,38.2,30.08,South,190,4.0,5.0,80,0.00,,,0.00,Wunderground v.1.15,2013-02-14 05:45:00,
2013-02-13 23:47:00,44.0,38.2,30.08,SSW,203,4.0,5.0,80,0.00,,,0.00,Wunderground v.1.15,2013-02-14 05:47:00,
2013-02-13 23:48:00,44.0,38.2,30.08,South,186,4.0,5.0,80,0.00,,,0.00,Wunderground v.1.15,2013-02-14 05:48:00,
2013-02-13 23:50:00,44.0,38.2,30.07,SSW,195,4.0,4.0,80,0.00,,,0.00,Wunderground v.1.15,2013-02-14 05:50:00,
2013-02-13 23:52:00,44.0,38.2,30.07,SW,217,3.0,4.0,80,0.00,,,0.00,Wunderground v.1.15,2013-02-14 05:52:00,
2013-02-13 23:54:00,43.9,38.1,30.07,SSW,196,3.0,4.0,80,0.00,,,0.00,Wunderground v.1.15,2013-02-14 05:54:00,
2013-02-13 23:55:00,43.9,38.1,30.08,SSE,153,3.0,4.0,80,0.00,,,0.00,Wunderground v.1.15,2013-02-14 05:55:00,
2013-02-13 23:56:00,43.9,38.1,30.07,South,170,3.0,6.0,80,0.00,,,0.00,Wunderground v.1.15,2013-02-14 05:56:00,
2013-02-13 23:59:00,43.9,38.1,30.07,South,176,3.0,6.0,80,0.00,,,0.00,Wunderground v.1.15,2013-02-14 05:59:00,